Time,TemperatureF,DewpointF,PressureIn,WindDirection,WindDirectionDegrees,WindSpeedMPH,WindSpeedGustMPH,Humidity,HourlyPrecipIn,Conditions,Clouds,dailyrainin,SoftwareType,DateUTC
2013-08-28 00:00:00,66.4,54.7,29.91,SE,124,2.0,3.0,66,0.00,,,0.00,VWS V14.01,2013-08-28 07:00:00,
2013-08-28 00:03:00,66.3,54.6,29.91,SSW,200,0.0,1.0,66,0.00,,,0.00,VWS V14.01,2013-08-28 07:03:00,
2013-08-28 00:08:00,66.1,54.8,29.91,SSW,198,1.0,3.0,67,0.00,,,0.00,VWS V14.01,2013-08-28 07:08:00,
2013-08-28 00:13:00,66.0,54.7,29.92,WSW,257,0.0,3.0,67,0.00,,,0.00,VWS V14.01,2013-08-28 07:13:00,
2013-08-28 00:18:00,65.8,54.5,29.91,SE,140,0.0,3.0,67,0.00,,,0.00,VWS V14.01,2013-08-28 07:18:00,
2013-08-28 00:23:00,65.6,54.8,29.91,SW,222,0.0,3.0,68,0.00,,,0.00,VWS V14.01,2013-08-28 07:23:00,
2013-08-28 00:28:00,65.5,54.7,29.92,SSE,153,0.0,3.0,68,0.00,,,0.00,VWS V14.01,2013-08-28 07:28:00,
2013-08-28 00:30:00,65.5,54.7,29.92,SSE,153,0.0,3.0,68,0.00,,,0.00,VWS V14.01,2013-08-28 07:30:00,
2013-08-28 00:33:00,65.4,54.6,29.92,SSW,202,1.0,2.0,68,0.00,,,0.00,VWS V14.01,2013-08-28 07:33:00,
2013-08-28 00:38:00,65.4,55.0,29.92,SSW,212,1.0,2.0,69,0.00,,,0.00,VWS V14.01,2013-08-28 07:38:00,
2013-08-28 00:43:00,65.4,55.0,29.92,South,186,0.0,3.0,69,0.00,,,0.00,VWS V14.01,2013-08-28 07:43:00,
2013-08-28 00:48:00,65.2,55.2,29.92,South,186,1.0,3.0,70,0.00,,,0.00,VWS V14.01,2013-08-28 07:48:00,
2013-08-28 00:53:00,65.0,55.0,29.92,WSW,246,0.0,3.0,70,0.00,,,0.00,VWS V14.01,2013-08-28 07:53:00,
2013-08-28 00:58:00,64.9,54.9,29.92,South,176,2.0,3.0,70,0.00,,,0.00,VWS V14.01,2013-08-28 07:58:00,
2013-08-28 01:00:00,64.9,54.9,29.92,South,176,2.0,3.0,70,0.00,,,0.00,VWS V14.01,2013-08-28 08:00:00,
2013-08-28 01:03:00,64.9,54.9,29.92,West,273,0.0,2.0,70,0.00,,,0.00,VWS V14.01,2013-08-28 08:03:00,
2013-08-28 01:08:00,64.9,54.9,29.91,West,273,0.0,2.0,70,0.00,,,0.00,VWS V14.01,2013-08-28 08:08:00,
2013-08-28 01:13:00,64.7,54.7,29.91,West,273,0.0,2.0,70,0.00,,,0.00,VWS V14.01,2013-08-28 08:13:00,
2013-08-28 01:18:00,64.5,54.5,29.91,SSW,197,0.0,2.0,70,0.00,,,0.00,VWS V14.01,2013-08-28 08:18:00,
2013-08-28 01:23:00,64.5,54.5,29.91,SW,233,0.0,2.0,70,0.00,,,0.00,VWS V14.01,2013-08-28 08:23:00,
2013-08-28 01:28:00,64.5,54.5,29.91,SE,145,0.0,3.0,70,0.00,,,0.00,VWS V14.01,2013-08-28 08:28:00,
2013-08-28 01:30:00,64.5,54.5,29.91,SE,146,1.0,3.0,70,0.00,,,0.00,VWS V14.01,2013-08-28 08:30:00,
2013-08-28 01:33:00,64.7,54.7,29.91,SW,226,1.0,2.0,70,0.00,,,0.00,VWS V14.01,2013-08-28 08:33:00,
2013-08-28 01:38:00,64.8,54.8,29.91,SSW,205,1.0,4.0,70,0.00,,,0.00,VWS V14.01,2013-08-28 08:38:00,
2013-08-28 01:43:00,64.8,54.4,29.91,SW,233,0.0,4.0,69,0.00,,,0.00,VWS V14.01,2013-08-28 08:43:00,
2013-08-28 01:48:00,64.9,54.5,29.91,SSE,153,0.0,4.0,69,0.00,,,0.00,VWS V14.01,2013-08-28 08:48:00,
2013-08-28 01:53:00,64.9,54.5,29.91,SSW,197,0.0,4.0,69,0.00,,,0.00,VWS V14.01,2013-08-28 08:53:00,
2013-08-28 01:58:00,64.8,54.4,29.91,SSW,197,0.0,4.0,69,0.00,,,0.00,VWS V14.01,2013-08-28 08:58:00,
2013-08-28 02:00:00,64.8,54.4,29.91,SSW,198,0.0,4.0,69,0.00,,,0.00,VWS V14.01,2013-08-28 09:00:00,
2013-08-28 02:03:00,64.7,54.7,29.91,WSW,242,0.0,1.0,70,0.00,,,0.00,VWS V14.01,2013-08-28 09:03:00,
2013-08-28 02:08:00,64.6,54.6,29.91,WSW,242,0.0,1.0,70,0.00,,,0.00,VWS V14.01,2013-08-28 09:08:00,
2013-08-28 02:13:00,64.5,54.5,29.91,West,271,0.0,1.0,70,0.00,,,0.00,VWS V14.01,2013-08-28 09:13:00,
2013-08-28 02:18:00,64.3,54.3,29.91,WSW,238,0.0,1.0,70,0.00,,,0.00,VWS V14.01,2013-08-28 09:18:00,
2013-08-28 02:23:00,64.0,54.4,29.91,WSW,239,0.0,1.0,71,0.00,,,0.00,VWS V14.01,2013-08-28 09:23:00,
2013-08-28 02:28:00,63.8,54.2,29.91,WSW,239,0.0,1.0,71,0.00,,,0.00,VWS V14.01,2013-08-28 09:28:00,
2013-08-28 02:30:00,63.8,54.2,29.91,WSW,239,0.0,1.0,71,0.00,,,0.00,VWS V14.01,2013-08-28 09:30:00,
2013-08-28 02:33:00,63.5,54.3,29.91,WSW,240,0.0,1.0,72,0.00,,,0.00,VWS V14.01,2013-08-28 09:33:00,
2013-08-28 02:34:00,63.4,54.2,29.91,WSW,240,0.0,1.0,72,0.00,,,0.00,VWS V14.01,2013-08-28 09:34:00,
2013-08-28 02:39:00,63.1,54.3,29.91,WSW,239,0.0,1.0,73,0.00,,,0.00,VWS V14.01,2013-08-28 09:39:00,
2013-08-28 02:44:00,62.6,54.2,29.91,WSW,239,0.0,1.0,74,0.00,,,0.00,VWS V14.01,2013-08-28 09:44:00,
2013-08-28 02:49:00,62.4,54.4,29.91,SSW,207,0.0,1.0,75,0.00,,,0.00,VWS V14.01,2013-08-28 09:49:00,
2013-08-28 02:54:00,62.2,54.5,29.91,West,273,0.0,1.0,76,0.00,,,0.00,VWS V14.01,2013-08-28 09:54:00,
2013-08-28 02:59:00,62.1,54.5,29.91,West,273,0.0,0.0,76,0.00,,,0.00,VWS V14.01,2013-08-28 09:59:00,
2013-08-28 03:00:00,62.1,54.5,29.91,West,273,0.0,1.0,76,0.00,,,0.00,VWS V14.01,2013-08-28 10:00:00,
2013-08-28 03:04:00,61.8,54.5,29.91,West,273,0.0,0.0,77,0.00,,,0.00,VWS V14.01,2013-08-28 10:04:00,
2013-08-28 03:09:00,61.7,54.4,29.91,West,271,0.0,1.0,77,0.00,,,0.00,VWS V14.01,2013-08-28 10:09:00,
2013-08-28 03:14:00,61.4,54.1,29.91,West,271,0.0,1.0,77,0.00,,,0.00,VWS V14.01,2013-08-28 10:14:00,
2013-08-28 03:19:00,61.1,54.2,29.91,West,271,0.0,1.0,78,0.00,,,0.00,VWS V14.01,2013-08-28 10:19:00,
2013-08-28 03:24:00,60.7,54.2,29.91,West,271,0.0,1.0,79,0.00,,,0.00,VWS V14.01,2013-08-28 10:24:00,
2013-08-28 03:29:00,60.3,54.1,29.91,West,271,0.0,0.0,80,0.00,,,0.00,VWS V14.01,2013-08-28 10:29:00,
2013-08-28 03:30:00,60.3,54.1,29.91,West,271,0.0,1.0,80,0.00,,,0.00,VWS V14.01,2013-08-28 10:30:00,
2013-08-28 03:33:00,59.8,54.0,29.91,West,271,0.0,0.0,81,0.00,,,0.00,VWS V14.01,2013-08-28 10:33:00,
2013-08-28 03:38:00,59.5,54.0,29.91,West,271,0.0,0.0,82,0.00,,,0.00,VWS V14.01,2013-08-28 10:38:00,
2013-08-28 03:43:00,59.3,54.2,29.91,West,271,0.0,1.0,83,0.00,,,0.00,VWS V14.01,2013-08-28 10:43:00,
2013-08-28 03:48:00,59.3,54.2,29.91,West,271,0.0,1.0,83,0.00,,,0.00,VWS V14.01,2013-08-28 10:48:00,
2013-08-28 03:53:00,59.4,54.2,29.91,WNW,287,0.0,1.0,83,0.00,,,0.00,VWS V14.01,2013-08-28 10:53:00,
2013-08-28 03:58:00,59.5,54.3,29.91,WSW,245,0.0,0.0,83,0.00,,,0.00,VWS V14.01,2013-08-28 10:58:00,
2013-08-28 04:00:00,59.5,54.3,29.91,WSW,245,0.0,2.0,83,0.00,,,0.00,VWS V14.01,2013-08-28 11:00:00,
2013-08-28 04:03:00,59.6,54.4,29.91,SSW,195,0.0,1.0,83,0.00,,,0.00,VWS V14.01,2013-08-28 11:03:00,
2013-08-28 04:08:00,59.6,54.4,29.91,SW,236,1.0,1.0,83,0.00,,,0.00,VWS V14.01,2013-08-28 11:08:00,
2013-08-28 04:13:00,59.9,54.7,29.91,WNW,285,0.0,1.0,83,0.00,,,0.00,VWS V14.01,2013-08-28 11:13:00,
2013-08-28 04:18:00,60.0,54.5,29.91,WNW,293,0.0,2.0,82,0.00,,,0.00,VWS V14.01,2013-08-28 11:18:00,
2013-08-28 04:23:00,60.0,54.5,29.91,WNW,293,0.0,2.0,82,0.00,,,0.00,VWS V14.01,2013-08-28 11:23:00,
2013-08-28 04:28:00,59.7,54.2,29.91,WNW,292,0.0,0.0,82,0.00,,,0.00,VWS V14.01,2013-08-28 11:28:00,
2013-08-28 04:30:00,59.8,54.3,29.91,WNW,293,0.0,2.0,82,0.00,,,0.00,VWS V14.01,2013-08-28 11:30:00,
2013-08-28 04:33:00,59.4,54.2,29.91,WNW,293,0.0,0.0,83,0.00,,,0.00,VWS V14.01,2013-08-28 11:33:00,
2013-08-28 04:38:00,59.0,54.2,29.91,WNW,293,0.0,0.0,84,0.00,,,0.00,VWS V14.01,2013-08-28 11:38:00,
2013-08-28 04:43:00,58.7,54.2,29.91,WNW,293,0.0,0.0,85,0.00,,,0.00,VWS V14.01,2013-08-28 11:43:00,
2013-08-28 04:48:00,58.5,54.0,29.91,WNW,292,0.0,0.0,85,0.00,,,0.00,VWS V14.01,2013-08-28 11:48:00,
2013-08-28 04:53:00,58.2,54.0,29.91,WNW,293,0.0,0.0,86,0.00,,,0.00,VWS V14.01,2013-08-28 11:53:00,
2013-08-28 04:58:00,58.1,53.9,29.91,WNW,292,0.0,0.0,86,0.00,,,0.00,VWS V14.01,2013-08-28 11:58:00,
2013-08-28 05:00:00,58.1,53.9,29.91,WNW,292,0.0,1.0,86,0.00,,,0.00,VWS V14.01,2013-08-28 12:00:00,
2013-08-28 05:03:00,58.0,53.8,29.91,WNW,292,0.0,0.0,86,0.00,,,0.00,VWS V14.01,2013-08-28 12:03:00,
2013-08-28 05:08:00,57.9,53.7,29.91,WNW,292,0.0,0.0,86,0.00,,,0.00,VWS V14.01,2013-08-28 12:08:00,
2013-08-28 05:13:00,57.8,53.7,29.92,WNW,293,0.0,0.0,86,0.00,,,0.00,VWS V14.01,2013-08-28 12:13:00,
2013-08-28 05:18:00,57.9,53.7,29.91,WNW,292,0.0,1.0,86,0.00,,,0.00,VWS V14.01,2013-08-28 12:18:00,
2013-08-28 05:23:00,57.9,53.7,29.91,WNW,292,0.0,1.0,86,0.00,,,0.00,VWS V14.01,2013-08-28 12:23:00,
2013-08-28 05:28:00,57.9,53.7,29.92,WNW,293,0.0,0.0,86,0.00,,,0.00,VWS V14.01,2013-08-28 12:28:00,
2013-08-28 05:30:00,57.9,53.7,29.91,WNW,293,0.0,1.0,86,0.00,,,0.00,VWS V14.01,2013-08-28 12:30:00,
2013-08-28 05:33:00,57.8,53.7,29.92,WNW,293,0.0,0.0,86,0.00,,,0.00,VWS V14.01,2013-08-28 12:33:00,
2013-08-28 05:38:00,57.9,53.7,29.92,WNW,293,0.0,0.0,86,0.00,,,0.00,VWS V14.01,2013-08-28 12:38:00,
2013-08-28 05:43:00,57.9,53.7,29.92,WNW,292,0.0,0.0,86,0.00,,,0.00,VWS V14.01,2013-08-28 12:43:00,
2013-08-28 05:48:00,57.8,53.7,29.92,WNW,293,0.0,0.0,86,0.00,,,0.00,VWS V14.01,2013-08-28 12:48:00,
2013-08-28 05:53:00,57.7,53.9,29.92,WNW,293,0.0,0.0,87,0.00,,,0.00,VWS V14.01,2013-08-28 12:53:00,
2013-08-28 05:58:00,57.8,54.0,29.92,WNW,293,0.0,0.0,87,0.00,,,0.00,VWS V14.01,2013-08-28 12:58:00,
2013-08-28 06:00:00,57.8,54.0,29.92,WNW,293,0.0,0.0,87,0.00,,,0.00,VWS V14.01,2013-08-28 13:00:00,
2013-08-28 06:03:00,57.8,54.0,29.92,WNW,293,0.0,0.0,87,0.00,,,0.00,VWS V14.01,2013-08-28 13:03:00,
2013-08-28 06:08:00,57.7,53.9,29.92,WNW,293,0.0,0.0,87,0.00,,,0.00,VWS V14.01,2013-08-28 13:08:00,
2013-08-28 06:13:00,57.8,54.0,29.92,WNW,292,0.0,1.0,87,0.00,,,0.00,VWS V14.01,2013-08-28 13:13:00,
2013-08-28 06:18:00,57.9,54.1,29.92,WNW,293,0.0,1.0,87,0.00,,,0.00,VWS V14.01,2013-08-28 13:18:00,
2013-08-28 06:23:00,57.8,54.0,29.93,WNW,292,0.0,1.0,87,0.00,,,0.00,VWS V14.01,2013-08-28 13:23:00,
2013-08-28 06:28:00,57.5,53.7,29.93,WNW,293,0.0,0.0,87,0.00,,,0.00,VWS V14.01,2013-08-28 13:28:00,
2013-08-28 06:30:00,57.5,53.7,29.93,WNW,293,0.0,1.0,87,0.00,,,0.00,VWS V14.01,2013-08-28 13:30:00,
2013-08-28 06:33:00,57.3,53.8,29.93,WNW,293,0.0,0.0,88,0.00,,,0.00,VWS V14.01,2013-08-28 13:33:00,
2013-08-28 06:38:00,57.1,53.6,29.93,WNW,293,0.0,0.0,88,0.00,,,0.00,VWS V14.01,2013-08-28 13:38:00,
2013-08-28 06:43:00,57.0,53.8,29.93,WNW,293,0.0,0.0,89,0.00,,,0.00,VWS V14.01,2013-08-28 13:43:00,
2013-08-28 06:48:00,57.0,53.8,29.93,WNW,293,0.0,0.0,89,0.00,,,0.00,VWS V14.01,2013-08-28 13:48:00,
2013-08-28 06:53:00,56.9,53.7,29.94,WNW,293,0.0,0.0,89,0.00,,,0.00,VWS V14.01,2013-08-28 13:53:00,
2013-08-28 06:58:00,57.0,54.1,29.94,WNW,290,0.0,0.0,90,0.00,,,0.00,VWS V14.01,2013-08-28 13:58:00,
2013-08-28 07:00:00,57.0,54.1,29.94,WNW,290,0.0,0.0,90,0.00,,,0.00,VWS V14.01,2013-08-28 14:00:00,
2013-08-28 07:03:00,57.0,54.1,29.94,WNW,290,0.0,0.0,90,0.00,,,0.00,VWS V14.01,2013-08-28 14:03:00,
2013-08-28 07:08:00,57.0,54.1,29.94,WNW,290,0.0,0.0,90,0.00,,,0.00,VWS V14.01,2013-08-28 14:08:00,
2013-08-28 07:13:00,57.0,54.1,29.94,WNW,290,0.0,0.0,90,0.00,,,0.00,VWS V14.01,2013-08-28 14:13:00,
2013-08-28 07:18:00,57.2,54.3,29.94,WNW,290,0.0,0.0,90,0.00,,,0.00,VWS V14.01,2013-08-28 14:18:00,
2013-08-28 07:23:00,57.4,54.5,29.94,WNW,290,0.0,0.0,90,0.00,,,0.00,VWS V14.01,2013-08-28 14:23:00,
2013-08-28 07:28:00,57.7,54.8,29.95,WNW,290,0.0,0.0,90,0.00,,,0.00,VWS V14.01,2013-08-28 14:28:00,
2013-08-28 07:30:00,57.7,54.8,29.95,WNW,290,0.0,0.0,90,0.00,,,0.00,VWS V14.01,2013-08-28 14:30:00,
2013-08-28 07:33:00,58.0,55.1,29.95,WNW,290,0.0,0.0,90,0.00,,,0.00,VWS V14.01,2013-08-28 14:33:00,
2013-08-28 07:38:00,58.3,55.4,29.95,WNW,302,0.0,0.0,90,0.00,,,0.00,VWS V14.01,2013-08-28 14:38:00,
2013-08-28 07:43:00,58.6,55.4,29.95,WNW,302,0.0,0.0,89,0.00,,,0.00,VWS V14.01,2013-08-28 14:43:00,
2013-08-28 07:48:00,59.1,55.5,29.95,WNW,302,0.0,0.0,88,0.00,,,0.00,VWS V14.01,2013-08-28 14:48:00,
2013-08-28 07:53:00,59.9,56.3,29.95,South,170,0.0,1.0,88,0.00,,,0.00,VWS V14.01,2013-08-28 14:53:00,
2013-08-28 07:58:00,60.8,56.3,29.95,SSW,193,0.0,1.0,85,0.00,,,0.00,VWS V14.01,2013-08-28 14:58:00,
2013-08-28 08:00:00,60.8,56.3,29.95,SSW,193,1.0,2.0,85,0.00,,,0.00,VWS V14.01,2013-08-28 15:00:00,
2013-08-28 08:03:00,62.0,56.8,29.95,SSW,201,0.0,2.0,83,0.00,,,0.00,VWS V14.01,2013-08-28 15:03:00,
2013-08-28 08:08:00,62.9,56.6,29.95,WSW,256,0.0,2.0,80,0.00,,,0.00,VWS V14.01,2013-08-28 15:08:00,
2013-08-28 08:13:00,63.7,56.7,29.95,SSE,151,1.0,4.0,78,0.00,,,0.00,VWS V14.01,2013-08-28 15:13:00,
2013-08-28 08:18:00,64.4,57.0,29.95,West,259,1.0,4.0,77,0.00,,,0.00,VWS V14.01,2013-08-28 15:18:00,
2013-08-28 08:23:00,64.8,57.1,29.95,SSW,205,1.0,4.0,76,0.00,,,0.00,VWS V14.01,2013-08-28 15:23:00,
2013-08-28 08:28:00,65.2,57.1,29.96,ENE,70,1.0,4.0,75,0.00,,,0.00,VWS V14.01,2013-08-28 15:28:00,
2013-08-28 08:30:00,65.1,57.0,29.96,SSW,210,3.0,4.0,75,0.00,,,0.00,VWS V14.01,2013-08-28 15:30:00,
2013-08-28 08:33:00,65.4,57.3,29.96,South,191,4.0,5.0,75,0.00,,,0.00,VWS V14.01,2013-08-28 15:33:00,
2013-08-28 08:38:00,65.6,57.5,29.96,SSE,167,1.0,5.0,75,0.00,,,0.00,VWS V14.01,2013-08-28 15:38:00,
2013-08-28 08:43:00,65.8,57.7,29.96,South,183,1.0,5.0,75,0.00,,,0.00,VWS V14.01,2013-08-28 15:43:00,
2013-08-28 08:48:00,66.1,57.6,29.96,SE,134,2.0,5.0,74,0.00,,,0.00,VWS V14.01,2013-08-28 15:48:00,
2013-08-28 08:53:00,66.6,58.1,29.96,West,265,2.0,5.0,74,0.00,,,0.00,VWS V14.01,2013-08-28 15:53:00,
2013-08-28 09:00:00,67.2,57.9,29.96,SSE,158,1.0,6.0,72,0.00,,,0.00,VWS V14.01,2013-08-28 16:00:00,
2013-08-28 09:30:00,71.1,58.8,29.97,West,270,1.0,6.0,65,0.00,,,0.00,VWS V14.01,2013-08-28 16:30:00,
2013-08-28 10:00:00,73.9,60.1,29.97,West,270,1.0,5.0,62,0.00,,,0.00,VWS V14.01,2013-08-28 17:00:00,
2013-08-28 10:30:00,75.4,60.6,29.97,West,270,1.0,7.0,60,0.00,,,0.00,VWS V14.01,2013-08-28 17:30:00,
2013-08-28 11:00:00,77.6,61.7,29.97,West,270,2.0,6.0,58,0.00,,,0.00,VWS V14.01,2013-08-28 18:00:00,
2013-08-28 11:30:00,79.7,62.1,29.98,West,270,1.0,9.0,55,0.00,,,0.00,VWS V14.01,2013-08-28 18:30:00,
2013-08-28 12:00:00,80.2,61.0,29.97,West,270,2.0,9.0,52,0.00,,,0.00,VWS V14.01,2013-08-28 19:00:00,
2013-08-28 12:30:00,81.9,63.1,29.97,West,270,2.0,8.0,53,0.00,,,0.00,VWS V14.01,2013-08-28 19:30:00,
2013-08-28 13:00:00,83.6,60.7,29.96,WSW,248,2.0,7.0,46,0.00,,,0.00,VWS V14.01,2013-08-28 20:00:00,
2013-08-28 13:30:00,83.8,60.2,29.96,West,270,2.0,9.0,45,0.00,,,0.00,VWS V14.01,2013-08-28 20:30:00,
2013-08-28 14:00:00,84.9,61.8,29.95,West,270,2.0,8.0,46,0.00,,,0.00,VWS V14.01,2013-08-28 21:00:00,
2013-08-28 14:30:00,86.4,61.9,29.94,West,270,2.0,8.0,44,0.00,,,0.00,VWS V14.01,2013-08-28 21:30:00,
2013-08-28 15:00:00,86.8,61.0,29.93,West,270,2.0,6.0,42,0.00,,,0.00,VWS V14.01,2013-08-28 22:00:00,
2013-08-28 15:30:00,87.2,60.7,29.92,West,270,2.0,7.0,41,0.00,,,0.00,VWS V14.01,2013-08-28 22:30:00,
2013-08-28 16:00:00,87.8,59.8,29.92,West,270,2.0,6.0,39,0.00,,,0.00,VWS V14.01,2013-08-28 23:00:00,
2013-08-28 16:53:00,87.8,59.8,29.92,West,270,2.0,6.0,39,0.00,,,0.00,VWS V14.01,2013-08-28 23:53:00,
2013-08-28 16:58:00,85.7,60.7,29.91,WSW,256,0.0,1.0,43,0.00,,,0.00,VWS V14.01,2013-08-28 23:58:00,
2013-08-28 17:00:00,85.7,60.7,29.91,WSW,248,2.0,5.0,43,0.00,,,0.00,VWS V14.01,2013-08-29 00:00:00,
2013-08-28 17:03:00,85.7,60.7,29.91,West,274,1.0,5.0,43,0.00,,,0.00,VWS V14.01,2013-08-29 00:03:00,
2013-08-28 17:08:00,85.7,60.7,29.91,South,186,1.0,5.0,43,0.00,,,0.00,VWS V14.01,2013-08-29 00:08:00,
2013-08-28 17:13:00,85.5,61.1,29.91,SW,226,1.0,7.0,44,0.00,,,0.00,VWS V14.01,2013-08-29 00:13:00,
2013-08-28 17:18:00,85.3,61.6,29.91,SW,225,2.0,7.0,45,0.00,,,0.00,VWS V14.01,2013-08-29 00:18:00,
2013-08-28 17:23:00,85.0,61.3,29.91,WSW,248,1.0,7.0,45,0.00,,,0.00,VWS V14.01,2013-08-29 00:23:00,
2013-08-28 17:28:00,85.0,61.9,29.91,WNW,284,2.0,2.0,46,0.00,,,0.00,VWS V14.01,2013-08-29 00:28:00,
2013-08-28 17:30:00,85.0,61.9,29.91,West,278,1.0,7.0,46,0.00,,,0.00,VWS V14.01,2013-08-29 00:30:00,
2013-08-28 17:33:00,84.8,61.7,29.91,NNW,333,3.0,6.0,46,0.00,,,0.00,VWS V14.01,2013-08-29 00:33:00,
2013-08-28 17:38:00,84.6,60.9,29.91,West,259,2.0,6.0,45,0.00,,,0.00,VWS V14.01,2013-08-29 00:38:00,
2013-08-28 17:43:00,84.7,61.7,29.91,SSW,195,1.0,6.0,46,0.00,,,0.00,VWS V14.01,2013-08-29 00:43:00,
2013-08-28 17:48:00,84.8,62.3,29.91,WSW,238,2.0,6.0,47,0.00,,,0.00,VWS V14.01,2013-08-29 00:48:00,
2013-08-28 17:53:00,84.5,61.5,29.91,NW,324,1.0,6.0,46,0.00,,,0.00,VWS V14.01,2013-08-29 00:53:00,
2013-08-28 17:58:00,84.0,61.6,29.91,West,270,1.0,1.0,47,0.00,,,0.00,VWS V14.01,2013-08-29 00:58:00,
2013-08-28 18:03:00,83.9,61.5,29.91,WSW,251,3.0,4.0,47,0.00,,,0.00,VWS V14.01,2013-08-29 01:03:00,
2013-08-28 18:08:00,83.7,62.0,29.91,SW,215,2.0,5.0,48,0.00,,,0.00,VWS V14.01,2013-08-29 01:08:00,
2013-08-28 18:13:00,83.7,62.0,29.91,SW,217,2.0,5.0,48,0.00,,,0.00,VWS V14.01,2013-08-29 01:13:00,
2013-08-28 18:18:00,83.3,61.6,29.91,SW,222,2.0,5.0,48,0.00,,,0.00,VWS V14.01,2013-08-29 01:18:00,
2013-08-28 18:23:00,82.9,61.8,29.91,SSW,205,1.0,5.0,49,0.00,,,0.00,VWS V14.01,2013-08-29 01:23:00,
2013-08-28 18:28:00,82.7,61.6,29.91,SW,219,1.0,5.0,49,0.00,,,0.00,VWS V14.01,2013-08-29 01:28:00,
2013-08-28 18:33:00,82.1,61.6,29.91,WNW,290,3.0,6.0,50,0.00,,,0.00,VWS V14.01,2013-08-29 01:33:00,
2013-08-28 18:38:00,81.4,61.5,29.92,WNW,301,1.0,6.0,51,0.00,,,0.00,VWS V14.01,2013-08-29 01:38:00,
2013-08-28 18:43:00,81.0,61.2,29.91,South,175,1.0,6.0,51,0.00,,,0.00,VWS V14.01,2013-08-29 01:43:00,
2013-08-28 18:48:00,80.5,61.3,29.92,WSW,238,1.0,6.0,52,0.00,,,0.00,VWS V14.01,2013-08-29 01:48:00,
2013-08-28 18:53:00,80.1,61.4,29.92,WSW,239,2.0,6.0,53,0.00,,,0.00,VWS V14.01,2013-08-29 01:53:00,
2013-08-28 18:58:00,79.7,61.1,29.92,WNW,287,1.0,6.0,53,0.00,,,0.00,VWS V14.01,2013-08-29 01:58:00,
2013-08-28 19:03:00,79.2,61.1,29.92,WSW,257,1.0,7.0,54,0.00,,,0.00,VWS V14.01,2013-08-29 02:03:00,
2013-08-28 19:08:00,78.8,61.3,29.92,SSW,197,1.0,7.0,55,0.00,,,0.00,VWS V14.01,2013-08-29 02:08:00,
2013-08-28 19:13:00,78.5,61.5,29.92,SSW,208,2.0,7.0,56,0.00,,,0.00,VWS V14.01,2013-08-29 02:13:00,
2013-08-28 19:18:00,78.1,61.6,29.92,WSW,253,1.0,7.0,57,0.00,,,0.00,VWS V14.01,2013-08-29 02:18:00,
2013-08-28 19:23:00,77.8,61.4,29.92,West,274,0.0,7.0,57,0.00,,,0.00,VWS V14.01,2013-08-29 02:23:00,
2013-08-28 19:28:00,77.4,61.5,29.92,NNE,25,0.0,7.0,58,0.00,,,0.00,VWS V14.01,2013-08-29 02:28:00,
2013-08-28 19:33:00,77.0,61.6,29.92,WNW,292,0.0,2.0,59,0.00,,,0.00,VWS V14.01,2013-08-29 02:33:00,
2013-08-28 20:00:00,74.6,61.6,29.93,West,270,1.0,5.0,64,0.00,,,0.00,VWS V14.01,2013-08-29 03:00:00,
2013-08-28 20:30:00,72.3,61.2,29.95,South,180,0.0,4.0,68,0.00,,,0.00,VWS V14.01,2013-08-29 03:30:00,
2013-08-28 21:00:00,70.6,60.8,29.96,SSW,202,0.0,6.0,71,0.00,,,0.00,VWS V14.01,2013-08-29 04:00:00,
2013-08-28 21:30:00,69.0,60.8,29.97,West,270,0.0,3.0,75,0.00,,,0.00,VWS V14.01,2013-08-29 04:30:00,
2013-08-28 22:00:00,67.3,59.8,29.97,West,270,0.0,2.0,77,0.00,,,0.00,VWS V14.01,2013-08-29 05:00:00,
2013-08-28 22:30:00,66.7,60.0,29.98,West,270,0.0,2.0,79,0.00,,,0.00,VWS V14.01,2013-08-29 05:30:00,
2013-08-28 23:00:00,65.8,59.8,29.98,West,270,0.0,2.0,81,0.00,,,0.00,VWS V14.01,2013-08-29 06:00:00,
2013-08-28 23:30:00,64.9,59.3,29.99,SE,135,0.0,3.0,82,0.00,,,0.00,VWS V14.01,2013-08-29 06:30:00,